TimeAKDT,TemperatureF,Dew PointF,Humidity,Sea Level PressureIn,VisibilityMPH,Wind Direction,Wind SpeedMPH,Gust SpeedMPH,PrecipitationIn,Events,Conditions,WindDirDegrees,DateUTC
12:02 AM,-11.2,-18.4,70,30.31,10.0,ENE,9.2,-,N/A,,Mostly Cloudy,60,2013-03-31 08:02:00
12:53 AM,-11.0,-17.0,75,30.32,9.0,ENE,8.1,-,0.00,Snow,Light Snow,70,2013-03-31 08:53:00
1:53 AM,-7.1,-13.0,75,30.33,9.0,East,6.9,-,0.00,Snow,Light Snow,80,2013-03-31 09:53:00
2:53 AM,-6.0,-11.9,75,30.33,8.0,ENE,9.2,-,0.00,Snow,Light Snow,70,2013-03-31 10:53:00
3:53 AM,-7.1,-11.9,79,30.34,9.0,ENE,5.8,-,0.00,Snow,Light Snow,70,2013-03-31 11:53:00
4:53 AM,-5.1,-11.0,76,30.34,9.0,ENE,6.9,-,0.00,Snow,Light Snow,60,2013-03-31 12:53:00
5:53 AM,-2.9,-9.0,75,30.35,9.0,East,9.2,-,0.00,Snow,Light Snow,80,2013-03-31 13:53:00
6:53 AM,-2.0,-8.0,76,30.35,9.0,East,10.4,-,0.00,Snow,Light Snow,80,2013-03-31 14:53:00
7:53 AM,-0.9,-7.1,75,30.35,7.0,East,8.1,-,0.00,Snow,Light Snow,80,2013-03-31 15:53:00
8:53 AM,-0.9,-6.0,79,30.36,6.0,East,10.4,-,0.00,Snow,Light Snow,90,2013-03-31 16:53:00
9:53 AM,-0.9,-6.0,79,30.36,6.0,East,9.2,-,0.00,Snow,Light Snow,90,2013-03-31 17:53:00
10:53 AM,-2.0,-7.1,79,30.37,7.0,East,8.1,-,0.00,,Mostly Cloudy,80,2013-03-31 18:53:00
11:53 AM,-0.9,-7.1,75,30.38,7.0,East,5.8,-,N/A,,Mostly Cloudy,80,2013-03-31 19:53:00
12:53 PM,-0.0,-6.0,76,30.39,10.0,East,5.8,-,N/A,,Scattered Clouds,80,2013-03-31 20:53:00
1:53 PM,1.0,-5.1,75,30.39,10.0,East,6.9,-,N/A,,Scattered Clouds,80,2013-03-31 21:53:00
2:53 PM,1.0,-6.0,72,30.40,10.0,ENE,8.1,-,N/A,,Partly Cloudy,70,2013-03-31 22:53:00
3:53 PM,-0.0,-6.0,76,30.40,10.0,East,8.1,-,N/A,,Partly Cloudy,80,2013-03-31 23:53:00
4:53 PM,-0.0,-7.1,72,30.41,10.0,ENE,5.8,-,N/A,,Clear,60,2013-04-01 00:53:00
5:53 PM,-0.9,-8.0,72,30.42,10.0,ENE,8.1,-,N/A,,Clear,70,2013-04-01 01:53:00
6:53 PM,-2.9,-9.9,72,30.42,10.0,ENE,9.2,-,N/A,,Clear,70,2013-04-01 02:53:00
7:53 PM,-5.1,-11.0,76,30.43,10.0,ENE,9.2,-,N/A,,Clear,70,2013-04-01 03:53:00
8:53 PM,-6.0,-11.0,79,30.43,10.0,ENE,10.4,-,N/A,,Clear,70,2013-04-01 04:53:00
9:53 PM,-6.0,-11.0,79,30.44,10.0,ENE,10.4,-,N/A,,Clear,70,2013-04-01 05:53:00
10:53 PM,-9.0,-14.1,79,30.45,10.0,ENE,11.5,-,N/A,,Clear,70,2013-04-01 06:53:00
11:53 PM,-11.9,-16.1,82,30.45,10.0,ENE,9.2,-,N/A,,Clear,70,2013-04-01 07:53:00